{"data":{"norad_id":59961,"intl_designator":"2024-107S","name":"STARLINK-31993","alt_names":[],"object_type":"PAYLOAD","status":"ACTIVE","operator":null,"country":"US","launch_date":"2024-06-05","launch_site_code":"AFETR","launch_vehicle":null,"mission":null,"orbit_class":"UNKNOWN","rcs_meters":null,"size_class":null,"mass_kg":null,"dimensions":null,"purposes":["comms"],"wikipedia_slug":null,"has_3d_model":false,"image_url":null,"decayed_at":null,"tle_current":{"epoch":"2026-05-25T02:11:16.434816Z","epoch_age_seconds":74123,"freshness":"FRESH","line1":"1 59961U 24107S   26145.09116244 -.00000409  00000+0 -16864-5 0  9993","line2":"2 59961  53.1606  70.6673 0001171  91.2851 268.8284 15.30192526111430","mean_motion":15.30192526,"eccentricity":0.0001171,"inclination_deg":53.1606,"raan_deg":70.6673,"arg_perigee_deg":91.2851,"mean_anomaly_deg":268.8284,"bstar":-1.6864e-6,"rev_number":11143,"period_min":94.105805350143,"perigee_km":474.43485538641,"apogee_km":476.0399156675,"semimajor_km":6853.374385527,"source":"CELESTRAK","updated_at":"2026-05-25T13:38:19.129876Z"}}}